QFA276 YSSY-YMML

Flight info

Callsign QFA276
Flight time 1h 11m
Altitude 30000
Route MARUB7/34R WOL H65 LEECE Q29 ML
Aircraft B738/M-SDE2E3FGHIRWXY/LB1

Departure

Time 2026-05-04 08:10
Airport Sydney Kingsford Smith International Airport (YSSY)

Arrival

Time 2026-05-04 09:21
Airport Melbourne Airport (YMML)
Time Latitude Longitude Altitude Speed Heading
2026-05-04 07:14 -33.93101 151.17674 29 ft 0 kts 188°
2026-05-04 07:54 -33.93046 151.17735 29 ft 0 kts 298°
2026-05-04 07:57 -33.93041 151.17723 29 ft 6 kts 298°
2026-05-04 07:58 -33.93014 151.17659 29 ft 9 kts 291°
2026-05-04 07:58 -33.93005 151.17584 29 ft 9 kts 263°
2026-05-04 07:58 -33.93048 151.17535 29 ft 9 kts 206°
2026-05-04 07:58 -33.93106 151.17523 29 ft 8 kts 171°
2026-05-04 07:59 -33.93167 151.17537 29 ft 10 kts 168°
2026-05-04 07:59 -33.93241 151.17556 29 ft 12 kts 167°
2026-05-04 07:59 -33.93327 151.17578 29 ft 14 kts 167°
2026-05-04 07:59 -33.93432 151.17592 29 ft 17 kts 187°
2026-05-04 08:00 -33.93559 151.17605 27 ft 19 kts 168°
2026-05-04 08:00 -33.93663 151.17647 28 ft 15 kts 149°
2026-05-04 08:00 -33.93780 151.17696 19 ft 21 kts 167°
2026-05-04 08:02 -33.94606 151.17903 25 ft 20 kts 168°
2026-05-04 08:02 -33.94754 151.17943 21 ft 23 kts 167°
2026-05-04 08:02 -33.94898 151.17982 20 ft 19 kts 168°
2026-05-04 08:03 -33.95022 151.18013 27 ft 17 kts 168°
2026-05-04 08:03 -33.95101 151.18087 27 ft 16 kts 95°
2026-05-04 08:03 -33.95083 151.18215 23 ft 15 kts 78°
2026-05-04 08:03 -33.95061 151.18335 26 ft 15 kts 77°
2026-05-04 08:04 -33.95044 151.18452 25 ft 14 kts 92°
2026-05-04 08:04 -33.95105 151.18531 29 ft 13 kts 142°
2026-05-04 08:04 -33.95178 151.18609 25 ft 15 kts 137°
2026-05-04 08:04 -33.95261 151.18691 29 ft 16 kts 150°
2026-05-04 08:05 -33.95380 151.18738 25 ft 20 kts 168°
2026-05-04 08:05 -33.95529 151.18777 22 ft 23 kts 167°
2026-05-04 08:05 -33.95682 151.18816 27 ft 22 kts 168°
2026-05-04 08:05 -33.95830 151.18854 28 ft 22 kts 168°
2026-05-04 08:06 -33.95975 151.18892 26 ft 21 kts 167°
2026-05-04 08:06 -33.96131 151.18933 26 ft 24 kts 167°
2026-05-04 08:06 -33.96290 151.18975 27 ft 23 kts 168°
2026-05-04 08:06 -33.96448 151.19015 20 ft 25 kts 168°
2026-05-04 08:08 -33.97037 151.19368 20 ft 13 kts 349°
2026-05-04 08:08 -33.96841 151.19318 18 ft 65 kts 348°
2026-05-04 08:10 -33.93829 151.26496 4981 ft 229 kts 80°
2026-05-04 08:11 -33.93737 151.28547 4999 ft 260 kts 82°
2026-05-04 08:11 -33.93594 151.33170 5514 ft 290 kts 83°
2026-05-04 08:11 -33.93527 151.35623 6337 ft 294 kts 84°
2026-05-04 08:12 -33.93460 151.38075 7224 ft 293 kts 83°
2026-05-04 08:12 -33.93391 151.40544 8007 ft 297 kts 84°
2026-05-04 08:12 -33.93318 151.43056 8750 ft 302 kts 84°
2026-05-04 08:12 -33.93243 151.45567 9537 ft 305 kts 84°
2026-05-04 08:13 -33.93167 151.48143 10286 ft 309 kts 85°
2026-05-04 08:13 -33.93472 151.50731 10962 ft 321 kts 111°
2026-05-04 08:13 -33.94722 151.52962 11676 ft 326 kts 136°
2026-05-04 08:13 -33.96615 151.54469 12350 ft 329 kts 161°
2026-05-04 08:14 -33.98848 151.54940 13024 ft 327 kts 187°
2026-05-04 08:14 -34.01054 151.54293 13430 ft 332 kts 212°
2026-05-04 08:14 -34.02971 151.52683 13636 ft 342 kts 229°
2026-05-04 08:16 -34.14252 151.36968 18023 ft 365 kts 235°
2026-05-04 08:16 -34.15926 151.34643 18606 ft 369 kts 235°
2026-05-04 08:16 -34.17613 151.32305 19214 ft 370 kts 235°
2026-05-04 08:17 -34.19289 151.29986 19814 ft 371 kts 235°
2026-05-04 08:17 -34.20993 151.27628 20411 ft 373 kts 235°
2026-05-04 08:17 -34.22702 151.25262 20998 ft 374 kts 235°
2026-05-04 08:17 -34.24421 151.22879 21548 ft 376 kts 236°
2026-05-04 08:19 -34.37085 151.05264 24038 ft 416 kts 236°
2026-05-04 08:19 -34.38985 151.02621 24444 ft 418 kts 236°
2026-05-04 08:20 -34.40905 150.99945 24790 ft 421 kts 236°
2026-05-04 08:20 -34.42836 150.97248 25133 ft 424 kts 236°
2026-05-04 08:20 -34.44775 150.94539 25485 ft 426 kts 236°
2026-05-04 08:20 -34.46724 150.91814 25836 ft 429 kts 236°
2026-05-04 08:21 -34.48682 150.89073 26166 ft 431 kts 236°
2026-05-04 08:21 -34.50651 150.86315 26505 ft 434 kts 236°
2026-05-04 08:21 -34.52591 150.83599 27115 ft 427 kts 236°
2026-05-04 08:21 -34.54514 150.80912 28035 ft 415 kts 237°
2026-05-04 08:22 -34.56366 150.78246 28557 ft 411 kts 240°
2026-05-04 08:22 -34.58098 150.75473 28814 ft 415 kts 241°
2026-05-04 08:24 -34.70306 150.54992 30026 ft 445 kts 241°
2026-05-04 08:24 -34.72141 150.51933 30011 ft 451 kts 241°
2026-05-04 08:24 -34.75850 150.45749 30048 ft 460 kts 241°
2026-05-04 08:25 -34.79646 150.39410 30030 ft 465 kts 241°
2026-05-04 08:25 -34.83471 150.33011 30020 ft 470 kts 241°
2026-05-04 08:27 -34.98818 150.07204 30041 ft 467 kts 242°
2026-05-04 08:28 -35.02614 150.00787 30047 ft 466 kts 242°
2026-05-04 08:28 -35.06377 149.94415 30033 ft 465 kts 242°
2026-05-04 08:29 -35.10155 149.88016 30062 ft 464 kts 242°
2026-05-04 08:31 -35.24562 149.63470 30046 ft 464 kts 242°
2026-05-04 08:33 -35.39515 149.37816 30055 ft 462 kts 243°
2026-05-04 08:35 -35.54426 149.12040 30055 ft 463 kts 243°
2026-05-04 08:35 -35.58126 149.05615 30060 ft 463 kts 243°
2026-05-04 08:37 -35.71073 148.83039 30093 ft 461 kts 244°
2026-05-04 08:38 -35.74759 148.76584 30070 ft 461 kts 244°
2026-05-04 08:38 -35.78448 148.70111 30066 ft 461 kts 244°
2026-05-04 08:40 -35.93115 148.44233 30094 ft 461 kts 245°
2026-05-04 08:41 -35.96765 148.37744 30066 ft 459 kts 244°
2026-05-04 08:41 -36.00386 148.31293 30082 ft 459 kts 244°
2026-05-04 08:42 -36.04035 148.24776 30084 ft 461 kts 244°
2026-05-04 08:42 -36.07689 148.18244 30122 ft 462 kts 244°
2026-05-04 08:43 -36.11330 148.11725 30085 ft 462 kts 244°
2026-05-04 08:43 -36.14902 148.05361 30054 ft 434 kts 244°
2026-05-04 08:44 -36.18288 147.99309 30078 ft 431 kts 245°
2026-05-04 08:46 -36.32430 147.73852 30060 ft 454 kts 244°
2026-05-04 08:46 -36.36004 147.67386 30061 ft 454 kts 244°
2026-05-04 08:47 -36.39576 147.60903 30069 ft 454 kts 244°
2026-05-04 08:47 -36.43125 147.54448 30055 ft 455 kts 244°
2026-05-04 08:48 -36.46698 147.47939 30057 ft 456 kts 243°
2026-05-04 08:48 -36.50264 147.41435 30048 ft 456 kts 243°
2026-05-04 08:49 -36.53826 147.34924 30065 ft 455 kts 244°
2026-05-04 08:50 -36.66244 147.12119 30036 ft 454 kts 244°
2026-05-04 08:51 -36.69789 147.05581 30042 ft 455 kts 244°
2026-05-04 08:51 -36.73304 146.99087 30032 ft 448 kts 244°
2026-05-04 08:52 -36.75028 146.95925 29842 ft 433 kts 245°
2026-05-04 08:52 -36.76697 146.92854 29496 ft 422 kts 245°
2026-05-04 08:52 -36.78328 146.89835 29238 ft 417 kts 245°
2026-05-04 08:52 -36.79939 146.86842 28911 ft 412 kts 245°
2026-05-04 08:53 -36.81531 146.83874 28684 ft 411 kts 246°
2026-05-04 08:54 -36.92512 146.63403 25836 ft 390 kts 246°
2026-05-04 08:55 -36.94010 146.60593 25440 ft 387 kts 245°
2026-05-04 08:55 -36.95473 146.57854 25164 ft 381 kts 245°
2026-05-04 08:55 -36.96942 146.55104 24747 ft 378 kts 245°
2026-05-04 08:55 -36.98394 146.52381 24417 ft 374 kts 245°
2026-05-04 08:57 -37.08242 146.33851 21715 ft 356 kts 243°
2026-05-04 09:01 -37.26357 145.99514 16415 ft 322 kts 241°
2026-05-04 09:01 -37.27585 145.97170 16027 ft 321 kts 241°
2026-05-04 09:01 -37.28807 145.94840 15645 ft 319 kts 241°
2026-05-04 09:01 -37.30025 145.92517 15263 ft 317 kts 241°
2026-05-04 09:02 -37.31231 145.90211 14897 ft 314 kts 241°
2026-05-04 09:02 -37.32435 145.87919 14537 ft 313 kts 242°
2026-05-04 09:02 -37.33630 145.85649 14183 ft 311 kts 243°
2026-05-04 09:02 -37.34823 145.83385 13814 ft 310 kts 242°
2026-05-04 09:03 -37.36006 145.81133 13415 ft 308 kts 242°
2026-05-04 09:03 -37.37182 145.78889 13029 ft 306 kts 242°
2026-05-04 09:03 -37.38340 145.76671 12603 ft 299 kts 242°
2026-05-04 09:03 -37.39473 145.74508 12195 ft 291 kts 242°
2026-05-04 09:04 -37.40573 145.72409 11804 ft 285 kts 242°
2026-05-04 09:04 -37.41635 145.70378 11423 ft 279 kts 242°
2026-05-04 09:04 -37.42687 145.68362 11036 ft 273 kts 243°
2026-05-04 09:04 -37.43725 145.66374 10655 ft 268 kts 243°
2026-05-04 09:05 -37.44741 145.64426 10287 ft 265 kts 243°
2026-05-04 09:05 -37.45791 145.62479 9937 ft 271 kts 241°
2026-05-04 09:05 -37.46907 145.60559 9564 ft 271 kts 240°
2026-05-04 09:05 -37.48030 145.58652 9156 ft 270 kts 240°
2026-05-04 09:06 -37.49136 145.56778 9030 ft 262 kts 240°
2026-05-04 09:07 -37.56675 145.43831 8709 ft 258 kts 240°
2026-05-04 09:08 -37.57737 145.41992 8531 ft 260 kts 240°
2026-05-04 09:08 -37.58808 145.40137 8345 ft 262 kts 240°
2026-05-04 09:08 -37.59882 145.38281 8181 ft 263 kts 240°
2026-05-04 09:08 -37.60953 145.36427 7983 ft 259 kts 240°
2026-05-04 09:09 -37.62006 145.34606 7794 ft 254 kts 240°
2026-05-04 09:09 -37.63027 145.32846 7594 ft 250 kts 240°
2026-05-04 09:09 -37.64039 145.31090 7424 ft 244 kts 241°
2026-05-04 09:09 -37.65032 145.29369 7247 ft 240 kts 241°
2026-05-04 09:10 -37.66009 145.27674 7042 ft 237 kts 242°
2026-05-04 09:10 -37.66974 145.25992 6831 ft 236 kts 241°
2026-05-04 09:10 -37.67930 145.24325 6631 ft 233 kts 240°
2026-05-04 09:10 -37.68879 145.22683 6426 ft 230 kts 240°
2026-05-04 09:11 -37.69817 145.21058 6208 ft 227 kts 240°
2026-05-04 09:11 -37.70743 145.19449 5979 ft 225 kts 241°
2026-05-04 09:11 -37.71649 145.17873 5750 ft 224 kts 241°
2026-05-04 09:11 -37.72560 145.16284 5537 ft 222 kts 241°
2026-05-04 09:12 -37.73459 145.14719 5319 ft 218 kts 242°
2026-05-04 09:12 -37.74346 145.13176 5101 ft 216 kts 242°
2026-05-04 09:14 -37.79906 145.03482 3592 ft 183 kts 244°
2026-05-04 09:14 -37.80647 145.02186 3422 ft 182 kts 244°
2026-05-04 09:14 -37.81341 145.00870 3168 ft 174 kts 256°
2026-05-04 09:14 -37.81605 144.99443 2987 ft 165 kts 265°
2026-05-04 09:15 -37.81855 144.98009 2760 ft 167 kts 264°
2026-05-04 09:15 -37.82110 144.96572 2571 ft 166 kts 264°
2026-05-04 09:15 -37.82353 144.95218 2494 ft 153 kts 264°
2026-05-04 09:15 -37.82565 144.93972 2483 ft 139 kts 268°
2026-05-04 09:17 -37.81088 144.86523 2276 ft 136 kts 341°
2026-05-04 09:18 -37.80158 144.86325 2181 ft 135 kts 342°
2026-05-04 09:18 -37.79543 144.86198 2122 ft 135 kts 343°
2026-05-04 09:18 -37.78321 144.85956 1990 ft 132 kts 343°
2026-05-04 09:18 -37.77711 144.85835 1940 ft 135 kts 344°
2026-05-04 09:19 -37.76775 144.85654 1837 ft 135 kts 344°
2026-05-04 09:19 -37.75855 144.85483 1747 ft 132 kts 344°
2026-05-04 09:19 -37.74924 144.85322 1530 ft 136 kts 345°
2026-05-04 09:19 -37.73996 144.85163 1369 ft 131 kts 349°
2026-05-04 09:20 -37.73098 144.84986 1205 ft 129 kts 350°
2026-05-04 09:20 -37.72192 144.84823 1058 ft 138 kts 351°
2026-05-04 09:20 -37.71215 144.84610 949 ft 145 kts 350°
2026-05-04 09:20 -37.70219 144.84397 755 ft 143 kts 353°
2026-05-04 09:21 -37.69260 144.84226 562 ft 143 kts 351°
2026-05-04 09:21 -37.68263 144.84044 359 ft 142 kts 352°
2026-05-04 09:21 -37.67408 144.83890 367 ft 93 kts 351°
2026-05-04 09:21 -37.67084 144.83833 379 ft 31 kts 356°
2026-05-04 09:22 -37.66942 144.83862 382 ft 19 kts 19°
2026-05-04 09:22 -37.66859 144.83903 382 ft 0 kts 22°
2026-05-04 09:25 -37.66732 144.84003 381 ft 14 kts 60°
2026-05-04 09:25 -37.66707 144.84146 376 ft 17 kts 82°
2026-05-04 09:26 -37.66686 144.84321 369 ft 24 kts 81°
2026-05-04 09:26 -37.66665 144.84493 356 ft 23 kts 81°
2026-05-04 09:26 -37.66641 144.84705 337 ft 23 kts 81°
2026-05-04 09:26 -37.66555 144.84838 330 ft 21 kts 58°
2026-05-04 09:27 -37.66533 144.84974 333 ft 16 kts 83°
2026-05-04 09:27 -37.66572 144.85059 333 ft 10 kts 172°
2026-05-04 09:27 -37.66644 144.85071 335 ft 11 kts 173°
2026-05-04 09:27 -37.66685 144.85041 336 ft 8 kts 250°
2026-05-04 09:28 -37.66690 144.85006 334 ft 0 kts 263°